Zurück zum Katalog

STARLINK-35835

AktivKommunikationVLEO
NORAD 66569·PAYLOAD·🇺🇸 United States

Gestartet Nov 21, 2025 von Cape Canaveral Space Force Station

Loading…

Nächste Überflüge (nächste 24 Stunden)

TLE

AktuellSource: CelesTrak SupGP

Epoche: Sep 14, 2026, 23:20 UTC

1 66569C 25268N   26257.97270833 -.00021753  00000+0 -78788-3 0  2573
2 66569  43.0030 357.7005 0001423 267.8757  56.2390 15.27589841    19

Verfolge STARLINK-35835 in Echtzeit mit AllMySat

Download on the App Store